Weather History for Farmington, MO

Change the Weather History Date:

Sunday, March 24, 2013

  Actual Average Record
Temperature  
Mean Temperature 36 °F -  
Max Temperature 42 °F 57 °F 78 °F (2007)
Min Temperature 30 °F 35 °F 19 °F (2014)
Degree Days  
Heating Degree Days 29    
Moisture  
Dew Point 31 °F    
Average Humidity 87    
Maximum Humidity 93    
Minimum Humidity 76    
Precipitation  
Precipitation 0.13 in - - ()
Sea Level Pressure  
Sea Level Pressure 29.67 in    
Wind  
Wind Speed 12 mph (NNW)    
Max Wind Speed 23 mph    
Max Gust Speed 32 mph    
Visibility 3 miles    
Events      
Averages and records for this station are not official NWS values.
T = Trace of Precipitation, MM = Missing Value Source: NWS Daily Summary

Daily Weather History Graph

Daily Weather History Graph

Search for Another Location

Airport:

Trip Planner

Search our weather history database for the weather conditions in past years. The results will help you decide how hot, cold, wet, or windy it might be!

Date:

Astronomy

Mar. 24, 2013 Rise Set
Actual Time 6:58 AM CDT 7:17 PM CDT
Civil Twilight 6:32 AM CDT 7:43 PM CDT
Nautical Twilight 6:01 AM CDT 8:14 PM CDT
Astronomical Twilight 5:30 AM CDT 8:45 PM CDT
Moon 4:48 PM CDT (3/24) 5:06 AM CDT (3/24)
Length of Visible Light 13h 11m
Length of Day
12h 18m
Waxing Gibbous, 92% of the Moon is Illuminated
Mar 24
Waxing Gibbous
Mar 27
Full
Apr 2
Last Quarter
Apr 10
New
Apr 18
First Quarter

Hourly Weather History & Observations

Time (CDT) Temp. Windchill Dew Point Humidity Pressure Visibility Wind Dir Wind Speed Gust Speed Precip Events Conditions
12:15 AM 42.8 °F 38.0 °F 37.4 °F 81% 29.80 in 10.0 mi NE 8.1 mph - N/A   Overcast
12:35 AM 42.8 °F 38.0 °F 37.4 °F 81% 29.79 in 10.0 mi NNE 8.1 mph - N/A   Overcast
12:55 AM 42.8 °F 38.6 °F 35.6 °F 76% 29.79 in 10.0 mi NE 6.9 mph - N/A   Overcast
1:15 AM 41.0 °F 34.7 °F 35.6 °F 81% 29.78 in 10.0 mi NE 10.4 mph - N/A   Overcast
1:35 AM 41.0 °F 35.8 °F 35.6 °F 81% 29.78 in 10.0 mi NNE 8.1 mph - N/A   Overcast
1:55 AM 41.0 °F 33.9 °F 35.6 °F 81% 29.76 in 10.0 mi NNE 12.7 mph - N/A   Overcast
2:35 AM 39.2 °F 31.6 °F 33.8 °F 81% 29.75 in 10.0 mi NNE 12.7 mph 18.4 mph N/A   Overcast
2:55 AM 39.2 °F 32.0 °F 35.6 °F 87% 29.74 in 4.0 mi NNE 11.5 mph - N/A   Overcast
3:15 AM 37.4 °F 30.3 °F 35.6 °F 93% 29.74 in 3.0 mi NNE 10.4 mph - N/A   Overcast
3:35 AM 37.4 °F 30.3 °F 35.6 °F 93% 29.75 in 2.5 mi NNE 10.4 mph - N/A   Overcast
3:55 AM 37.4 °F 29.3 °F 35.6 °F 93% 29.74 in 3.0 mi NNE 12.7 mph - N/A   Overcast
4:15 AM 37.4 °F 28.9 °F 33.8 °F 87% 29.71 in 3.0 mi NE 13.8 mph 18.4 mph N/A   Overcast
4:35 AM 37.4 °F 28.9 °F 33.8 °F 87% 29.69 in 3.0 mi NE 13.8 mph 19.6 mph N/A   Overcast
4:55 AM 37.4 °F 28.9 °F 33.8 °F 87% 29.70 in 3.0 mi NE 13.8 mph - N/A   Overcast
5:15 AM 37.4 °F 28.9 °F 33.8 °F 87% 29.69 in 4.0 mi NE 13.8 mph - N/A   Overcast
5:35 AM 35.6 °F 25.9 °F 33.8 °F 93% 29.68 in 4.0 mi ENE 16.1 mph - N/A   Overcast
5:55 AM 35.6 °F 26.2 °F 33.8 °F 93% 29.66 in 4.0 mi ENE 15.0 mph - N/A   Overcast
6:15 AM 35.6 °F 27.1 °F 33.8 °F 93% 29.66 in 4.0 mi East 12.7 mph - N/A   Overcast
6:35 AM 35.6 °F 26.2 °F 33.8 °F 93% 29.65 in 3.0 mi ENE 15.0 mph 18.4 mph N/A   Overcast
6:55 AM 35.6 °F 25.5 °F 33.8 °F 93% 29.63 in 3.0 mi ENE 17.3 mph - N/A   Overcast
7:15 AM 35.6 °F 28.0 °F 33.8 °F 93% 29.62 in 3.0 mi ENE 10.4 mph 17.3 mph N/A   Overcast
7:35 AM 35.6 °F 25.9 °F 33.8 °F 93% 29.59 in 1.8 mi East 16.1 mph 20.7 mph N/A   Overcast
7:55 AM 35.6 °F 25.2 °F 33.8 °F 93% 29.58 in 1.2 mi East 18.4 mph 23.0 mph N/A   Overcast
8:15 AM 35.6 °F 26.2 °F 33.8 °F 93% 29.55 in 1.0 mi ENE 15.0 mph 23.0 mph 0.01 in   Overcast
8:35 AM 35.6 °F 28.6 °F 33.8 °F 93% 29.54 in 1.5 mi ENE 9.2 mph 18.4 mph 0.01 in   Overcast
8:55 AM 35.6 °F - 32.0 °F 87% 29.59 in 1.5 mi Calm Calm - 0.02 in   Overcast
9:15 AM 33.8 °F - 32.0 °F 93% 29.58 in 1.8 mi Calm Calm - 0.02 in   Overcast
9:35 AM 33.8 °F 30.8 °F 30.2 °F 87% 29.57 in 1.2 mi North 3.5 mph - 0.04 in   Overcast
9:55 AM 33.8 °F 27.7 °F 30.2 °F 87% 29.58 in 2.0 mi NW 6.9 mph - 0.06 in   Overcast
10:15 AM 33.8 °F 27.0 °F 30.2 °F 87% 29.57 in 1.0 mi NW 8.1 mph - 0.01 in   Overcast
10:35 AM 33.8 °F 27.0 °F 30.2 °F 87% 29.58 in 1.5 mi NW 8.1 mph - 0.03 in   Overcast
10:55 AM 32.0 °F 23.6 °F 30.2 °F 93% 29.57 in 0.8 mi WNW 10.4 mph - 0.04 in   Overcast
11:15 AM 32.0 °F 24.8 °F 30.2 °F 93% 29.56 in 2.0 mi NW 8.1 mph - 0.01 in   Overcast
11:35 AM 32.0 °F 24.8 °F 30.2 °F 93% 29.55 in 1.5 mi NW 8.1 mph - 0.01 in   Overcast
11:55 AM 32.0 °F 23.6 °F 30.2 °F 93% 29.55 in 2.0 mi NW 10.4 mph - 0.01 in   Overcast
12:15 PM 33.8 °F 27.0 °F 30.2 °F 87% 29.54 in 3.0 mi NW 8.1 mph - N/A   Overcast
12:35 PM 33.8 °F 25.8 °F 30.2 °F 87% 29.55 in 4.0 mi NW 10.4 mph - N/A   Overcast
12:55 PM 33.8 °F 25.8 °F 30.2 °F 87% 29.55 in 4.0 mi NNW 10.4 mph - N/A   Overcast
1:15 PM 33.8 °F 25.8 °F 30.2 °F 87% 29.55 in 3.0 mi NW 10.4 mph 16.1 mph N/A   Overcast
1:35 PM 33.8 °F 24.8 °F 30.2 °F 87% 29.56 in 2.5 mi NW 12.7 mph 16.1 mph N/A   Overcast
1:55 PM 33.8 °F 24.8 °F 30.2 °F 87% 29.56 in 3.0 mi NW 12.7 mph 18.4 mph N/A   Overcast
2:15 PM 32.0 °F 22.1 °F 28.4 °F 87% 29.56 in 1.8 mi WNW 13.8 mph - N/A   Overcast
2:35 PM 32.0 °F 22.1 °F 30.2 °F 93% 29.56 in 3.0 mi WNW 13.8 mph 19.6 mph N/A   Overcast
2:55 PM 33.8 °F 23.5 °F 28.4 °F 81% 29.57 in 4.0 mi WNW 16.1 mph 21.9 mph N/A   Overcast
3:15 PM 33.8 °F 23.5 °F 28.4 °F 81% 29.58 in 6.0 mi WNW 16.1 mph 27.6 mph N/A   Overcast
3:35 PM 33.8 °F 22.8 °F 28.4 °F 81% 29.59 in 3.0 mi West 18.4 mph 23.0 mph N/A   Overcast
3:55 PM 33.8 °F 23.5 °F 28.4 °F 81% 29.60 in 2.5 mi WNW 16.1 mph 25.3 mph N/A   Overcast
4:15 PM 32.0 °F 19.8 °F 28.4 °F 87% 29.61 in 1.0 mi WNW 20.7 mph 32.2 mph N/A   Overcast
4:35 PM 32.0 °F 20.5 °F 28.4 °F 87% 29.62 in 1.0 mi WNW 18.4 mph 28.8 mph N/A   Overcast
4:55 PM 32.0 °F 20.1 °F 28.4 °F 87% 29.64 in 1.5 mi West 19.6 mph 29.9 mph N/A   Overcast
5:15 PM 30.2 °F 18.1 °F 26.6 °F 86% 29.65 in 1.0 mi WNW 18.4 mph 27.6 mph N/A   Overcast
5:35 PM 30.2 °F 18.5 °F 28.4 °F 93% 29.67 in 0.8 mi WNW 17.3 mph 29.9 mph N/A   Overcast
5:55 PM 30.2 °F 18.5 °F 26.6 °F 86% 29.68 in 1.0 mi WNW 17.3 mph 28.8 mph N/A   Overcast
6:15 PM 30.2 °F 18.5 °F 26.6 °F 86% 29.69 in 1.0 mi WNW 17.3 mph 26.5 mph N/A   Overcast
6:35 PM 30.2 °F 18.5 °F 26.6 °F 86% 29.70 in 1.5 mi WNW 17.3 mph 29.9 mph N/A   Overcast
6:55 PM 30.2 °F 16.8 °F 26.6 °F 86% 29.71 in 1.8 mi WNW 23.0 mph 29.9 mph N/A   Overcast
7:15 PM 30.2 °F 17.1 °F 26.6 °F 86% 29.73 in 3.0 mi WNW 21.9 mph 31.1 mph N/A   Overcast
7:35 PM 30.2 °F 17.8 °F 26.6 °F 86% 29.74 in 5.0 mi WNW 19.6 mph 28.8 mph N/A   Overcast
7:55 PM 30.2 °F 18.9 °F 26.6 °F 86% 29.75 in 5.0 mi WNW 16.1 mph 28.8 mph N/A   Overcast
8:15 PM 30.2 °F 19.8 °F 26.6 °F 86% 29.76 in 3.0 mi WNW 13.8 mph 24.2 mph N/A   Overcast
8:35 PM 30.2 °F 18.5 °F 26.6 °F 86% 29.77 in 3.0 mi WNW 17.3 mph 24.2 mph N/A   Overcast
8:55 PM 30.2 °F 18.5 °F 26.6 °F 86% 29.78 in 3.0 mi WNW 17.3 mph 31.1 mph N/A   Overcast
9:15 PM 30.2 °F 18.5 °F 26.6 °F 86% 29.79 in 3.0 mi WNW 17.3 mph 21.9 mph N/A   Overcast
9:35 PM 30.2 °F 19.3 °F 26.6 °F 86% 29.80 in 3.0 mi WNW 15.0 mph 21.9 mph N/A   Overcast
9:55 PM 30.2 °F 18.1 °F 26.6 °F 86% 29.81 in 3.0 mi WNW 18.4 mph 25.3 mph N/A   Overcast
10:15 PM 30.2 °F 19.8 °F 26.6 °F 86% 29.82 in 4.0 mi WNW 13.8 mph 25.3 mph N/A   Overcast
10:35 PM 30.2 °F 18.9 °F 26.6 °F 86% 29.82 in 3.0 mi WNW 16.1 mph 23.0 mph N/A   Overcast
10:55 PM 30.2 °F 18.9 °F 26.6 °F 86% 29.82 in 3.0 mi West 16.1 mph 21.9 mph N/A   Overcast
11:15 PM 30.2 °F 20.8 °F 26.6 °F 86% 29.83 in 3.0 mi WNW 11.5 mph 24.2 mph N/A   Overcast
11:35 PM 30.2 °F 19.3 °F 26.6 °F 86% 29.84 in 5.0 mi WNW 15.0 mph 24.2 mph N/A   Overcast
11:55 PM 30.2 °F 19.8 °F 24.8 °F 80% 29.85 in 8.0 mi West 13.8 mph 23.0 mph N/A   Overcast